Probability
0 0 0 0 0 0 0 0 0 0 0 0 0 0 0 0 0 0 0 0 0 0 0 0 0 0 0 0 0 0 0 0 0 0 0 0 0 0 0 0 0 0 0
0 0 0 0 0 0 0 0 0 0 0 0 0 0 0 0 0 0 0 0 0 0 0 0 0 0 0 0 0 0 0 0 0 0 0 0 0 0 0 0 0 0 0
0 0 0 0 0 0 0 0 0 0 0 0 0 0 0 0 0 0 0 0 0 0 0 0 0 0 0 0 0 0 0 0 0 0 0 0 0 0 0 0 0 0 0
0 0 0 0 0 0 0 0 0 0 0 0 0 0 0 0 0 0 0 0 0 0 0 0 0 0 0 0 0 0 0 0 0 0 0 0 0 0 0 0 0 0 0
0 0 0 0 0 0 0 0 0 0 0 0 0 0 0 0 0 0 0 0 0 0 0 0 0 0 0 0 0 0 0 0 0 0 0 0 0 0 0 0 0 0 0
0 0 0 0 0 0 0 0 0 0 0 0 0 0 0 0 0 0 0 0 0 0 0 0 0 0 0 0 0 0 0 0 0 0 0 0 0 0 0 0 0 0 0
0 0 0 0 0 0 0 0 0 0 0 0 0 0 0 0 0 0 0 0 0 0 0 0 0 0 0 0 0 0 0 0 0 0 0 0 0 0 0 0 0 0 0
0 0 0 0 0 0 0 0 0 0 0 0 0 0 0 0 0 0 0 0 0 0 0 0 0 0 0 0 0 0 0 0 0 0 0 0 0 0 0 0 0 0 0
0 0 0 0 0 0 0 0 0 0 0 0 0 0 0 0 0 0 0 0 0 0 0 0 0 0 0 0 0 0 0 0 0 0 0 0 0 0 0 0 0 0 0
0 0 0 0 0 0 0 0 0 0 0 0 0 0 0 0 0 0 0 0 0 0 0 0 0 0 0 0 0 0 0 0 0 0 0 0 0 0 0 0 0 0 0
0 0 0 0 0 0 0 0 0 0 0 0 0 0 0 0 0 0 0 0 0 0 0 0 0 0 0 0 0 0 0 0 0 0 0 0 0 0 0 0 0 0 0
0 0 0 0 0 0 0 0 0 0 0 0 0 0 0 0 0 0 0 0 0 0 0 0 0 0 0 0 0 0 0 0 0 0 0 0 0 0 0 0 0 0 0
0 0 0 0 0 0 0 0 0 0 0 0 0 0 0 0 0 0 0 0 0 0 0 0 0 0 0 0 0 0 0 0 0 0 0 0 0 0 0 0 0 0 0
0 0 0 0 0 0 0 0 0 0 0 0 0 0 0 0 0 0 0 0 0 0 0 0 0 0 0 0 0 0 0 0 0 0 0 0 0 0 0 0 0 0 0
0 0 0 0 0 0 0 0 0 0 0 0 0 0 0 0 0 0 0 0 0 0 0 0 0 0 0 0 0 0 0 0 0 0 0 0 0 0 0 0 0 0 0
0 0 0 0 0 0 0 0 0 0 0 0 0 0 0 0 0 0 0 0 0 0 0 0 0 0 0 0 0 0 0 0 0 0 0 0 0 0 0 0 0 0 0
0 0 0 0 0 0 0 0 0 0 0 0 0 0 0 0 0 0 0 0 0 0 0 0 0 0 0 0 0 0 0 0 0 0 0 0 0 0 0 0 0 0 0
0 0 0 0 0 0 0 0 0 0 0 0 0 0 0 0 0 0 0 0 0 0 0 0 0 0 0 0 0 0 0 0 0 0 0 0 0 0 0 0 0 0 0
0 0 0 0 0 0 0 0 0 0 0 0 0 0 0 0 0 0 0 0 0 0 0 0 0 0 0 0 0 0 0 0 0 0 0 0 0 0 0 0 0 0 0
0 0 0 0 0 0 0 0 0 0 0 0 0 0 0 0 0 0 0 0 0 0 0 0 0 0 0 0 0 0 0 0 0 0 0 0 0 0 0 0 0 0 0
0 0 0 0 0 0 0 0 0 0 0 0 0 0 0 0 0 0 0 0 0 0 0 0 0 0 0 0 0 0 0 0 0 0 0 0 0 0 0 0 0 0 0
0 0 0 0 0 0 0 0 0 0 0 0 0 0 0 0 0 0 0 0 0 0 0 0 0 0 0 0 0 0 0 0 0 0 0 0 0 0 0 0 0 0 0
0 0 0 0 0 0 0 0 0 0 0 0 0 0 0 0 0 0 0 0 0 0 0 0 0 0 0 0 0 0 0 0 0 0 0 0 0 0 0 0 0 0 0
0 0 0 0 0 0 0 0 0 0 0 0 0 0 0 0 0 0 0 0 0 0 0 0 0 0 0 0 0 0 0 0 0 0 0 0 0 0 0 0 0 0 0
0 0 0 0 0 0 0 0 0 0 0 0 0 0 0 0 0 0 0 0 0 0 0 0 0 0 0 0 0 0 0 0 0 0 0 0 0 0 0 0 0 0 0
0 0 0 0 0 0 0 0 0 0 0 0 0 0 0 0 0 0 0 0 0 0 0 0 0 0 0 0 0 0 0 0 0 0 0 0 0 0 0 0 0 0 0
Wind_Speed
4 5 9 11 13 13 14 14 14 14 15 16 17 17 18 18 18 18 18 18 18 18 18 19 19 19 19 19 20 20 20 20 20 20 20 20 19 19 19 18 16 11 18
7 6 9 11 13 14 14 14 14 14 15 16 17 17 17 18 18 18 17 18 18 18 18 18 18 18 18 17 17 18 19 19 18 18 17 16 18 18 18 17 16 11 17
9 7 8 11 13 13 13 13 13 14 15 16 17 17 17 17 17 17 17 17 17 17 18 18 18 17 17 16 17 18 18 17 17 16 13 7 10 17 17 16 16 16 15
10 8 9 11 12 13 13 13 13 14 15 16 16 16 16 17 17 17 17 17 17 17 17 17 17 16 16 16 17 18 18 17 16 13 7 6 6 14 15 15 15 14 14
8 7 9 11 12 13 13 13 14 14 15 16 16 16 16 17 17 16 16 16 16 16 16 16 16 15 15 15 17 17 17 16 15 10 6 5 5 13 15 14 14 13 13
8 7 8 11 12 13 13 14 14 14 15 15 16 16 16 16 16 16 16 16 16 15 16 15 15 14 14 15 15 16 16 15 10 6 6 5 4 12 14 13 13 12 12
8 7 8 11 11 12 12 13 13 14 15 15 16 16 16 16 15 15 15 15 15 15 15 14 14 13 13 14 14 14 14 13 7 5 5 5 6 12 13 13 13 13 13
10 7 7 10 10 10 11 11 12 13 14 15 15 15 15 15 15 15 14 14 14 14 14 13 12 12 12 12 13 12 11 9 7 6 5 4 7 11 12 12 12 12 12
9 8 6 6 7 9 10 10 11 11 12 13 14 14 13 13 14 13 13 13 13 13 13 12 11 10 10 11 11 11 10 10 5 3 4 3 7 10 11 12 12 12 12
8 8 7 6 6 6 6 10 11 11 11 11 12 11 11 11 11 11 10 11 12 12 11 10 9 8 8 8 9 9 9 7 4 3 2 3 7 10 11 11 11 11 12
8 7 7 7 6 6 6 8 9 10 10 11 10 11 9 6 6 6 7 10 11 10 9 8 6 5 5 6 7 7 6 3 3 2 2 3 7 9 10 10 11 11 12
11 9 8 8 8 7 6 5 5 5 6 6 5 6 5 4 4 5 8 9 8 7 7 6 4 2 2 2 3 5 3 3 3 1 1 4 6 7 9 10 10 11 12
11 10 9 9 9 8 6 5 3 3 4 4 6 5 4 4 3 3 3 3 4 4 2 2 1 0 1 1 2 2 3 3 2 1 2 4 5 6 8 9 10 11 11
10 11 10 10 9 8 7 6 5 4 4 4 5 6 5 3 3 3 2 3 2 2 2 1 1 1 1 2 3 3 3 2 1 1 2 4 4 5 8 9 10 10 11
10 11 11 11 11 10 8 6 7 6 6 5 5 5 6 5 5 4 3 3 3 2 2 2 2 2 2 2 2 3 3 3 2 2 1 4 5 6 7 8 9 9 10
12 12 11 12 12 11 9 7 7 7 6 6 5 7 8 6 6 5 4 4 3 3 3 3 3 2 2 1 2 3 3 3 2 2 2 3 6 6 7 8 8 8 9
13 12 12 12 12 12 11 10 7 7 7 6 6 7 8 7 7 6 5 4 4 4 4 3 2 2 2 2 2 2 2 3 3 3 2 2 3 6 7 7 7 8 9
11 12 12 11 12 12 10 9 7 7 7 7 6 7 9 9 8 7 5 5 5 4 4 3 3 2 2 2 2 2 2 2 3 3 3 2 2 2 4 7 7 8 8
14 13 13 12 13 12 11 8 8 7 8 7 7 7 8 9 9 7 6 6 6 4 4 4 3 3 3 2 2 2 2 2 3 4 4 4 3 3 3 6 8 8 7
14 13 14 13 13 12 9 6 6 6 7 7 7 8 10 9 10 8 6 7 7 5 5 4 4 3 3 3 2 1 1 2 2 3 4 4 3 4 4 4 3 4 6
14 15 16 15 14 12 9 10 9 9 8 8 8 10 11 10 11 10 8 8 8 7 7 7 5 4 4 3 2 1 1 0 2 3 3 4 4 4 4 4 3 2 2
17 17 16 17 16 14 12 10 7 6 5 7 6 9 11 12 11 10 10 9 9 8 8 8 6 4 4 4 4 3 2 1 2 3 3 4 5 4 4 5 4 3 2
18 19 17 19 18 16 12 6 4 4 3 5 8 10 12 13 13 12 12 10 10 10 9 10 9 8 6 6 5 5 5 5 2 2 4 4 5 4 4 4 5 4 3
20 18 18 18 17 15 14 11 11 12 13 13 10 10 10 12 13 13 13 12 11 10 10 10 10 8 7 6 5 4 3 4 4 3 2 3 4 5 6 5 5 5 4
18 17 16 16 16 16 15 16 15 15 12 7 7 8 10 11 12 13 13 12 12 11 11 11 11 11 9 8 6 4 4 3 3 4 4 3 3 4 5 5 5 5 5
14 14 14 15 17 17 18 18 18 18 14 10 11 11 11 9 10 13 13 13 13 12 13 13 12 13 11 10 8 6 6 5 6 5 5 4 4 4 4 4 5 5 5
Wind_Direction
140 148 134 127 124 119 114 112 111 108 107 105 103 101 99 97 95 93 91 90 90 89 89 89 89 89 87 86 84 81 78 75 74 73 73 73 73 73 71 68 62 57 63
143 142 131 127 123 120 118 116 114 112 110 108 106 104 102 100 98 96 94 93 93 93 92 92 93 91 88 87 88 87 83 79 75 73 71 71 72 71 68 66 65 63 63
133 132 127 125 123 123 122 120 117 114 113 111 110 108 106 104 101 99 97 96 96 96 95 95 95 92 86 84 88 89 86 82 78 74 66 52 67 71 69 65 62 61 60
132 131 128 126 126 126 124 123 120 118 117 115 113 111 109 108 105 103 101 100 99 99 98 98 97 92 85 84 88 90 89 84 77 68 49 39 55 71 68 64 61 58 56
126 126 130 129 131 130 127 125 123 122 120 119 117 115 113 111 109 106 104 103 101 101 101 101 99 93 85 84 88 92 91 85 74 57 39 34 42 69 67 64 61 58 54
125 129 135 133 134 134 131 129 128 127 125 123 121 119 116 114 112 110 108 106 104 103 103 102 100 94 87 84 88 93 94 87 69 49 36 26 37 68 67 63 62 60 57
130 133 137 135 135 136 136 135 134 131 128 126 123 121 120 119 117 114 113 110 108 105 104 103 102 96 88 84 86 91 95 89 73 53 36 23 48 64 65 64 64 61 58
137 135 136 136 135 135 136 136 135 133 130 128 127 125 125 124 122 120 117 115 112 109 106 105 102 97 88 82 82 87 92 90 77 60 39 22 49 65 65 64 63 61 59
138 136 134 134 132 132 134 134 134 133 132 131 130 128 126 125 125 123 122 121 118 114 110 107 103 95 85 77 76 81 89 93 81 57 42 19 44 64 66 64 63 62 61
142 144 143 137 131 129 130 134 133 131 130 128 125 122 121 120 120 121 123 125 123 120 116 112 106 94 78 69 69 81 93 90 81 62 30 20 47 64 66 64 64 65 65
155 157 154 148 142 137 136 139 135 132 132 128 127 126 119 113 113 117 126 128 128 127 126 122 113 93 63 47 55 75 87 88 87 61 23 36 61 64 67 68 69 69 68
170 172 167 160 155 150 147 139 138 137 139 136 139 136 128 127 128 127 129 132 134 135 136 135 125 84 51 30 41 66 84 97 83 58 27 56 69 71 73 74 72 71 69
173 174 176 170 165 160 152 155 152 145 149 151 154 151 141 133 130 125 126 130 134 136 128 133 105 71 110 97 84 88 95 94 88 50 30 54 70 79 81 80 79 74 70
176 181 178 175 172 169 162 166 164 162 166 169 174 163 150 149 152 155 156 161 163 162 170 173 174 180 167 141 119 110 105 106 105 75 43 55 65 86 90 86 83 78 76
184 185 182 177 176 174 169 174 174 176 179 179 176 171 165 164 168 171 175 181 189 186 185 188 188 179 169 153 136 131 124 119 120 100 54 59 68 86 93 88 87 83 81
192 190 183 181 180 176 177 180 179 182 182 180 181 179 175 173 173 176 182 191 198 196 191 187 187 181 179 163 158 152 145 139 129 115 91 62 66 75 90 91 88 87 85
195 190 187 184 181 181 182 184 182 184 182 185 187 184 181 178 178 178 183 192 200 195 188 181 182 173 175 170 172 168 157 155 148 135 118 91 67 66 84 93 90 88 85
195 193 192 187 185 186 185 185 183 183 184 189 188 187 187 184 180 179 185 194 193 184 179 177 174 174 188 184 179 179 167 161 157 148 134 122 96 73 78 89 87 89 86
198 195 194 191 189 189 186 184 185 183 187 189 188 190 192 189 185 184 190 193 185 181 184 182 179 176 186 190 183 178 175 169 165 152 147 139 126 110 88 85 76 76 85
198 196 197 195 194 189 184 181 184 191 193 191 193 196 194 194 191 189 193 193 185 184 190 188 185 185 184 179 164 159 186 178 164 162 159 147 140 133 120 104 72 61 75
198 198 198 198 196 190 190 192 194 201 199 199 200 198 198 197 194 193 196 195 193 196 198 191 180 185 197 159 128 111 8 236 183 177 159 151 151 146 137 126 106 80 49
202 202 201 202 198 197 200 199 197 194 199 204 202 203 202 200 198 198 198 198 198 199 199 196 184 180 193 175 156 152 199 248 227 189 171 167 162 152 152 147 135 123 100
205 204 203 204 201 200 195 183 173 176 187 200 208 210 208 204 202 202 202 201 200 200 204 203 194 189 198 200 186 167 177 208 194 193 198 182 172 167 164 157 153 150 140
209 206 205 204 202 199 193 191 190 200 208 210 208 209 207 207 207 206 205 204 205 205 207 205 202 199 190 198 209 213 191 162 165 187 203 192 185 184 180 174 165 164 161
208 205 205 203 203 198 196 200 202 212 218 212 204 207 210 210 212 210 209 208 210 210 211 206 203 204 202 201 195 187 200 200 171 164 194 194 200 202 193 181 172 173 175
208 204 202 201 205 200 200 203 207 213 213 207 207 211 213 213 214 214 212 213 214 214 213 212 208 209 210 208 204 193 180 181 190 184 187 186 198 199 192 187 183 183 181